TimeCST,TemperatureF,Dew PointF,Humidity,Sea Level PressureIn,VisibilityMPH,Wind Direction,Wind SpeedMPH,Gust SpeedMPH,PrecipitationIn,Events,Conditions,WindDirDegrees,DateUTC
12:53 AM,17.1,1.9,52,30.10,10.0,South,9.2,-,N/A,,Overcast,190,2014-01-22 06:53:00
1:53 AM,18.0,1.9,50,30.07,10.0,SSW,15.0,-,N/A,,Overcast,200,2014-01-22 07:53:00
2:53 AM,19.0,3.9,52,30.06,10.0,SW,8.1,-,N/A,,Overcast,230,2014-01-22 08:53:00
3:53 AM,19.9,6.1,55,30.06,10.0,West,10.4,-,N/A,,Overcast,270,2014-01-22 09:53:00
4:48 AM,21.2,10.4,63,30.00,10.0,NW,18.4,29.9,N/A,,Overcast,310,2014-01-22 10:48:00
4:53 AM,21.0,10.9,65,30.06,10.0,NW,16.1,-,N/A,,Overcast,320,2014-01-22 10:53:00
5:53 AM,21.0,10.9,65,30.07,10.0,NNW,17.3,25.3,N/A,,Overcast,330,2014-01-22 11:53:00
6:31 AM,19.9,10.9,68,30.02,10.0,NNW,13.8,24.2,N/A,,Overcast,340,2014-01-22 12:31:00
6:53 AM,19.9,10.9,68,30.09,10.0,NNW,16.1,23.0,N/A,,Overcast,330,2014-01-22 12:53:00
7:53 AM,19.9,10.9,68,30.11,10.0,NNW,17.3,20.7,N/A,,Overcast,340,2014-01-22 13:53:00
8:53 AM,19.9,12.0,71,30.14,7.0,NW,16.1,-,0.00,Snow,Light Snow,320,2014-01-22 14:53:00
9:14 AM,19.9,10.0,65,30.08,10.0,NW,18.4,24.2,0.00,,Partly Cloudy,320,2014-01-22 15:14:00
9:53 AM,19.9,8.1,60,30.16,10.0,NW,16.1,-,0.00,,Clear,310,2014-01-22 15:53:00
10:53 AM,21.0,8.1,57,30.11,10.0,WSW,8.1,-,N/A,,Mostly Cloudy,240,2014-01-22 16:53:00
11:21 AM,23.0,8.1,53,30.11,10.0,NW,19.6,-,N/A,,Overcast,310,2014-01-22 17:21:00
11:53 AM,23.0,8.1,53,30.16,10.0,NW,17.3,28.8,N/A,,Overcast,320,2014-01-22 17:53:00
12:53 PM,24.1,8.1,51,30.14,10.0,WNW,17.3,-,N/A,,Overcast,300,2014-01-22 18:53:00
1:53 PM,25.0,8.1,49,30.14,10.0,NW,16.1,-,N/A,,Overcast,320,2014-01-22 19:53:00
2:53 PM,23.0,10.0,58,30.17,10.0,NNW,20.7,27.6,N/A,,Overcast,330,2014-01-22 20:53:00
3:53 PM,21.0,10.0,63,30.21,10.0,NW,23.0,32.2,N/A,,Overcast,310,2014-01-22 21:53:00
4:53 PM,18.0,1.9,50,30.25,10.0,NNW,25.3,35.7,N/A,,Scattered Clouds,330,2014-01-22 22:53:00
5:53 PM,12.9,-2.0,51,30.30,10.0,NNW,23.0,36.8,N/A,,Clear,340,2014-01-22 23:53:00
6:53 PM,8.1,-4.0,58,30.36,10.0,NNW,23.0,32.2,N/A,,Clear,330,2014-01-23 00:53:00
7:53 PM,5.0,-7.1,58,30.40,10.0,NNW,17.3,31.1,N/A,,Clear,340,2014-01-23 01:53:00
8:53 PM,3.0,-8.0,60,30.43,10.0,NNW,21.9,29.9,N/A,,Clear,330,2014-01-23 02:53:00
9:53 PM,1.0,-9.9,60,30.48,10.0,NNW,15.0,23.0,N/A,,Clear,340,2014-01-23 03:53:00
10:53 PM,-0.0,-11.0,60,30.52,10.0,North,15.0,33.4,N/A,,Clear,350,2014-01-23 04:53:00
11:53 PM,-0.9,-11.0,62,30.55,10.0,NNW,18.4,24.2,N/A,,Partly Cloudy,340,2014-01-23 05:53:00